{"data":{"norad_id":68682,"intl_designator":"2026-077W","name":"STARLINK-37300","alt_names":[],"object_type":"PAYLOAD","status":"ACTIVE","operator":null,"country":"US","launch_date":"2026-04-11","launch_site_code":"AFWTR","launch_vehicle":null,"mission":null,"orbit_class":"UNKNOWN","rcs_meters":null,"size_class":null,"mass_kg":null,"dimensions":null,"purposes":["comms"],"wikipedia_slug":null,"has_3d_model":false,"image_url":null,"decayed_at":null,"tle_current":{"epoch":"2026-05-25T02:22:26.213664Z","epoch_age_seconds":76653,"freshness":"FRESH","line1":"1 68682U 26077W   26145.09891451  .00035727  00000+0  11017-2 0  9992","line2":"2 68682  97.2865  16.7624 0002279  84.5278 275.6225 15.33503134  6877","mean_motion":15.33503134,"eccentricity":0.0002279,"inclination_deg":97.2865,"raan_deg":16.7624,"arg_perigee_deg":84.5278,"mean_anomaly_deg":275.6225,"bstar":0.0011017,"rev_number":687,"period_min":93.90264474021,"perigee_km":463.810578765,"apogee_km":466.92984935316,"semimajor_km":6843.5072140591,"source":"CELESTRAK","updated_at":"2026-05-25T13:38:21.996174Z"}}}